カタログに戻る

DELTA 1 DEB

運用中SSO
NORAD 42565·DEBRIS·🇺🇸 United States

打ち上げ Jul 23, 1972 から Vandenberg Space Force Base

Loading…

次のパス (今後24時間)

TLE

経年Source: Space-Track

元期: Sep 10, 2026, 15:59 UTC

1 42565U 72058JY  26253.66632527  .00000321  00000-0  82456-4 0  9994
2 42565  97.8854  44.4323 0034710 275.0277  84.6960 14.55938969678902

AllMySatでDELTA 1 DEBをリアルタイム追跡

Download on the App Store